Sheridan, NY

8:23 PM EDT on August 25, 2016 (GMT -0400)
Chautauqua County-Dunkirk

Weather History for KDKK - October, 2013

Change the Weather History Date:

Friday, October 4, 2013

  Actual Average Record
Temperature  
Mean Temperature 68 °F -  
Max Temperature 75 °F 66 °F 88 °F (1951)
Min Temperature 64 °F 48 °F 32 °F (1974)
Cooling Degree Days 4    
Growing Degree Days 18 (Base 50)    
Moisture  
Dew Point 64 °F    
Average Humidity 84    
Maximum Humidity 94    
Minimum Humidity 73    
Precipitation  
Precipitation 0.07 in - - ()
Sea Level Pressure  
Sea Level Pressure 30.03 in    
Wind  
Wind Speed 10 mph (SW)    
Max Wind Speed 17 mph    
Max Gust Speed 25 mph    
Visibility 9 miles    
Events Rain    
Averages and records for this station are not official NWS values.
T = Trace of Precipitation, MM = Missing Value Source: NWS Daily Summary

Daily Weather History Graph

Daily Weather History Graph

Search for Another Location

Airport or City:

Trip Planner

Search our weather history database for the weather conditions in past years. The results will help you decide how hot, cold, wet, or windy it might be!

Date:

Astronomy

Oct. 04, 2013 Rise Set
Actual Time 7:17 AM EDT 6:52 PM EDT
Civil Twilight 6:49 AM EDT 7:20 PM EDT
Nautical Twilight 6:17 AM EDT 7:53 PM EDT
Astronomical Twilight 5:44 AM EDT 8:26 PM EDT
Moon 6:51 AM EDT (10/4) 6:33 PM EDT (10/4)
Length of Visible Light 12h 31m
Length of Day
11h 35m
Waning Crescent, 0% of the Moon is Illuminated
Oct 4
Waning Crescent
Oct 4
New
Oct 11
First Quarter
Oct 18
Full
Oct 26
Last Quarter

Hourly Weather History & Observations

Time (EDT) Temp. Dew Point Humidity Pressure Visibility Wind Dir Wind Speed Gust Speed Precip Events Conditions
12:53 AM 66.0 °F 64.0 °F 93% 30.00 in 7.0 mi SSW 9.2 mph - N/A   Mostly Cloudy
1:53 AM 68.0 °F 64.0 °F 87% 30.00 in 9.0 mi SSW 8.1 mph - 0.00 in   Mostly Cloudy
2:53 AM 68.0 °F 64.0 °F 87% 30.00 in 10.0 mi SSW 10.4 mph - N/A   Overcast
3:53 AM 66.9 °F 64.0 °F 90% 29.99 in 10.0 mi SSW 8.1 mph - N/A   Mostly Cloudy
4:53 AM 66.9 °F 63.0 °F 87% 30.00 in 10.0 mi SSW 9.2 mph - 0.00 in   Overcast
5:53 AM 66.9 °F 64.0 °F 90% 30.00 in 4.0 mi SSW 13.8 mph 20.7 mph 0.07 in Rain Heavy Rain
6:53 AM 66.0 °F 64.0 °F 93% 30.01 in 10.0 mi SSW 8.1 mph - 0.00 in   Partly Cloudy
7:53 AM 66.9 °F 64.0 °F 90% 30.02 in 9.0 mi SSW 9.2 mph - N/A   Scattered Clouds
8:53 AM 70.0 °F 64.9 °F 84% 30.04 in 10.0 mi SW 8.1 mph - N/A   Mostly Cloudy
9:53 AM 71.1 °F 66.0 °F 84% 30.04 in 10.0 mi SW 9.2 mph - N/A   Overcast
10:53 AM 73.9 °F 66.0 °F 76% 30.03 in 10.0 mi SW 11.5 mph - N/A   Partly Cloudy
11:10 AM 73.4 °F 64.4 °F 73% 30.03 in 10.0 mi WSW 10.4 mph - N/A   Mostly Cloudy
11:30 AM 73.4 °F 64.4 °F 73% 30.03 in 10.0 mi WSW 10.4 mph - N/A   Scattered Clouds
11:50 AM 73.4 °F 64.4 °F 73% 30.04 in 10.0 mi WSW 10.4 mph 21.9 mph N/A   Mostly Cloudy
11:53 AM 73.0 °F 64.9 °F 76% 30.03 in 10.0 mi WSW 12.7 mph 20.7 mph N/A   Mostly Cloudy
12:53 PM 73.0 °F 64.0 °F 73% 30.03 in 10.0 mi WSW 16.1 mph 21.9 mph N/A   Overcast
1:42 PM 73.4 °F 64.4 °F 73% 30.02 in 10.0 mi SW 13.8 mph - 0.00 in Rain Light Rain
1:53 PM 72.0 °F 64.0 °F 76% 30.01 in 10.0 mi WSW 17.3 mph 20.7 mph 0.00 in   Overcast
2:13 PM 71.6 °F 64.4 °F 78% 30.02 in 10.0 mi West 13.8 mph 23.0 mph N/A   Mostly Cloudy
2:39 PM 71.6 °F 64.4 °F 78% 30.02 in 9.0 mi WSW 12.7 mph 24.2 mph N/A   Mostly Cloudy
2:53 PM 72.0 °F 64.9 °F 78% 30.01 in 9.0 mi WSW 16.1 mph - N/A   Mostly Cloudy
3:10 PM 71.6 °F 64.4 °F 78% 30.02 in 9.0 mi West 11.5 mph 21.9 mph N/A   Mostly Cloudy
3:53 PM 72.0 °F 64.9 °F 78% 30.01 in 10.0 mi West 15.0 mph 25.3 mph N/A   Scattered Clouds
4:04 PM 71.6 °F 64.4 °F 78% 30.02 in 9.0 mi WSW 15.0 mph 23.0 mph N/A   Mostly Cloudy
4:53 PM 70.0 °F 64.9 °F 84% 30.02 in 8.0 mi WSW 10.4 mph - N/A   Overcast
5:41 PM 69.8 °F 64.4 °F 83% 30.03 in 9.0 mi SW 11.5 mph - N/A   Scattered Clouds
5:53 PM 70.0 °F 64.0 °F 81% 30.02 in 9.0 mi SW 11.5 mph - N/A   Clear
6:53 PM 68.0 °F 64.0 °F 87% 30.03 in 8.0 mi SW 8.1 mph - N/A   Mostly Cloudy
7:53 PM 66.0 °F 63.0 °F 90% 30.04 in 9.0 mi SW 3.5 mph - N/A   Partly Cloudy
8:53 PM 66.0 °F 63.0 °F 90% 30.06 in 10.0 mi SSW 9.2 mph - N/A   Overcast
9:13 PM 64.4 °F 62.6 °F 94% 30.06 in 9.0 mi SSW 5.8 mph - N/A   Mostly Cloudy
9:38 PM 64.4 °F 62.6 °F 94% 30.06 in 8.0 mi Calm Calm - N/A   Mostly Cloudy
9:53 PM 64.0 °F 62.1 °F 93% 30.06 in 8.0 mi SSW 5.8 mph - N/A   Mostly Cloudy
10:53 PM 64.9 °F 63.0 °F 93% 30.05 in 9.0 mi SSW 10.4 mph - N/A   Overcast
11:53 PM 64.9 °F 62.1 °F 90% 30.06 in 10.0 mi SSW 8.1 mph - N/A   Mostly Cloudy